Location: Minneapolis
(44.9800°N, 93.2640°W)
Time: 12:16:29
(UTC-05:00)

Iridium 96 - Visible Passes

Search period start: 29 May 2016 00:00
Search period end: 08 June 2016 00:00
Orbit: 776 x 779 km, 86.4° (Epoch: 29 May)

Date Brightness Start Highest point End Pass type
(mag) Time Alt. Az. Time Alt. Az. Time Alt. Az.
29 May 8.1 02:55:30 10° NE 02:58:36 16° ENE 03:01:41 10° ESE visible
29 May 5.5 04:34:41 10° N 04:39:54 71° W 04:45:05 10° S visible
30 May 5.9 04:01:09 10° N 04:06:22 66° E 04:11:33 10° SSE visible
31 May 6.9 03:27:52 10° NNE 03:32:43 37° E 03:37:32 10° SSE visible
01 Jun 7.7 02:54:56 10° NNE 02:58:56 22° ENE 03:02:55 10° SE visible
01 Jun 5.8 04:34:55 10° NNW 04:39:57 49° W 04:44:57 10° SSW visible
02 Jun 8.2 02:22:51 10° NE 02:25:00 12° ENE 02:27:10 10° E visible
02 Jun 5.5 04:01:14 10° N 04:06:30 88° W 04:11:43 10° S visible
03 Jun 6.2 03:27:48 10° N 03:32:56 52° E 03:38:01 10° SSE visible
04 Jun 7.2 02:54:38 10° NNE 02:59:13 30° ENE 03:03:46 10° SE visible
04 Jun 6.3 04:35:15 10° NNW 04:39:57 35° W 04:44:39 10° SSW visible
05 Jun 7.9 02:21:55 10° NNE 02:25:23 18° ENE 02:28:49 10° ESE visible
05 Jun 5.6 04:01:24 10° N 04:06:34 62° W 04:11:43 10° SSW visible
06 Jun 5.7 03:27:50 10° N 03:33:05 75° E 03:37:57 12° S visible
07 Jun 6.6 02:54:29 10° N 02:59:28 42° E 03:04:12 11° SSE visible
07 Jun 6.7 04:35:43 10° NNW 04:39:56 25° W 04:44:07 10° SW visible
